GW6494 Weather Reports


time (UTC)temp
F
wind
direction
speed
knots
gust
knots
rain 1hr
in
rain 24hr
in
rain mn
in
humidity
%
barometer
mb
20260906140129 80 36 7.0 9.6 0.00 0.03 0.03 75 1016.8
20260906135626 79 31 2.6 3.5 0.00 0.03 0.03 77 1016.7
20260906135122 79 54 5.2 10.4 0.00 0.03 0.03 77 1017.0
20260906134618 79 44 2.6 4.3 0.00 0.03 0.03 78 1017.2
20260906134113 79 54 6.1 7.0 0.00 0.03 0.03 78 1017.1
20260906133609 79 37 2.6 8.7 0.00 0.03 0.03 79 1017.2
20260906133108 78 57 3.5 7.8 0.00 0.03 0.03 80 1017.3
20260906132603 79 59 3.5 7.8 0.00 0.03 0.03 79 1017.1
20260906132059 79 16 5.2 7.0 0.00 0.03 0.03 78 1017.2
20260906131554 79 52 0.0 2.6 0.00 0.03 0.03 79 1017.0
20260906131050 78 333 1.7 4.3 0.00 0.03 0.03 80 1017.0
20260906130549 78 9 0.9 4.3 0.00 0.03 0.03 81 1017.1
20260906130045 77 7 2.6 6.1 0.00 0.03 0.03 82 1017.0
20260906125543 77 5 1.7 2.6 0.00 0.03 0.03 82 1016.9
20260906125042 78 62 1.7 6.1 0.00 0.03 0.03 82 1016.7
20260906124538 77 5 1.7 3.5 0.00 0.03 0.03 82 1016.7
20260906124032 77 6 3.5 5.2 0.00 0.03 0.03 82 1016.8
20260906123532 77 312 2.6 3.5 0.00 0.03 0.03 83 1016.7
20260906123027 77 347 4.3 6.1 0.00 0.03 0.03 83 1016.5
20260906122526 77 6 1.7 3.5 0.00 0.03 0.03 83 1016.4
20260906122023 77 358 1.7 3.5 0.00 0.03 0.03 83 1016.4
20260906121519 76 45 4.3 5.2 0.00 0.03 0.03 84 1016.3
20260906121015 76 51 1.7 4.3 0.00 0.03 0.03 84 1016.3
20260906120515 76 35 1.7 4.3 0.00 0.03 0.03 85 1016.5
20260906120013 76 329 1.7 2.6 0.00 0.03 0.03 85 1016.3
20260906115508 76 355 3.5 4.3 0.00 0.03 0.03 85 1016.1
20260906115008 76 17 2.6 6.1 0.00 0.03 0.03 85 1016.2
20260906114502 76 44 3.5 3.5 0.00 0.03 0.03 85 1016.2
20260906113958 76 47 2.6 5.2 0.00 0.03 0.03 84 1016.3
20260906113456 76 53 2.6 2.6 0.00 0.03 0.03 85 1016.3
20260906112952 76 38 4.3 4.3 0.02 0.03 0.03 84 1016.2
20260906112447 76 13 2.6 2.6 0.00 0.02 0.02 85 1016.0
20260906111943 76 343 1.7 2.6 0.00 0.02 0.02 85 1015.9
20260906111442 76 327 0.0 2.6 0.00 0.02 0.02 85 1016.0
20260906110937 77 15 0.9 2.6 0.00 0.02 0.02 84 1016.1
20260906110433 77 55 0.0 6.1 0.00 0.02 0.02 84 1015.9
20260906105931 77 59 3.5 3.5 0.02 0.02 0.02 84 1015.9
20260906105427 77 33 1.7 1.7 0.02 0.02 0.02 83 1015.8
20260906104923 77 342 2.6 4.3 0.00 0.02 0.02 83 1015.9
20260906104422 77 355 1.7 2.6 0.00 0.02 0.02 83 1015.9
20260906103921 77 36 1.7 2.6 0.00 0.02 0.02 83 1015.9
20260906103419 77 32 2.6 3.5 0.00 0.02 0.02 82 1015.9
20260906102915 78 29 1.7 4.3 0.00 0.02 0.02 82 1015.9
20260906102414 78 27 3.5 6.1 0.00 0.02 0.02 82 1015.6
20260906101909 78 339 2.6 3.5 0.00 0.02 0.02 82 1015.7
20260906101405 78 42 4.3 4.3 0.00 0.02 0.02 82 1015.5
20260906100900 78 22 3.5 3.5 0.00 0.02 0.02 81 1015.5
20260906100359 78 24 1.7 4.3 0.00 0.02 0.02 81 1015.7
20260906095854 78 41 1.7 4.3 0.00 0.02 0.02 81 1015.5
20260906095350 78 337 1.7 2.6 0.00 0.02 0.02 81 1015.5
20260906094849 78 37 3.5 5.2 0.05 0.02 0.02 80 1015.4
20260906094344 79 28 2.6 3.5 0.05 0.02 0.02 81 1015.4
20260906093840 79 355 5.2 5.2 0.00 0.01 0.01 81 1015.6
20260906093336 79 36 2.6 4.3 0.00 0.01 0.01 81 1015.4
20260906092831 79 354 2.6 4.3 0.00 0.01 0.01 80 1015.3
20260906092331 79 350 1.7 5.2 0.00 0.01 0.01 80 1015.2
20260906091826 79 40 5.2 5.2 0.00 0.01 0.01 80 1015.0
20260906091323 79 359 1.7 2.6 0.00 0.01 0.01 79 1015.2
20260906090819 80 345 2.6 6.1 0.00 0.01 0.01 79 1015.1
20260906090318 80 21 4.3 6.1 0.00 0.01 0.01 79 1014.9
20260906085818 80 12 1.7 2.6 0.00 0.01 0.01 79 1015.1
20260906085317 80 11 1.7 4.3 0.00 0.01 0.01 78 1014.9
20260906084813 80 73 1.7 8.7 0.00 0.01 0.01 78 1015.0
20260906084312 80 60 3.5 6.1 0.00 0.01 0.01 78 1014.9
20260906083807 80 22 2.6 6.1 0.00 0.01 0.01 79 1014.9
20260906083303 80 34 7.8 8.7 0.00 0.01 0.01 80 1014.8
20260906082757 81 354 1.7 4.3 0.00 0.01 0.01 81 1014.9
20260906082252 81 36 3.5 6.1 0.00 0.01 0.01 81 1015.0
20260906081748 81 1 4.3 5.2 0.00 0.01 0.01 81 1014.8
20260906081243 81 61 6.1 8.7 0.02 0.01 0.01 81 1014.9
20260906080739 81 38 2.6 7.8 0.02 0.01 0.01 81 1014.9
20260906080236 81 12 2.6 6.1 0.00 0.00 0.00 81 1014.8
20260906075735 81 41 3.5 5.2 0.00 0.00 0.00 81 1014.8
20260906075235 81 356 1.7 5.2 0.00 0.00 0.00 81 1014.7
20260906074731 81 10 2.6 3.5 0.00 0.00 0.00 81 1014.7
20260906074230 82 44 3.5 3.5 0.00 0.00 0.00 81 1014.8
20260906073730 82 60 3.5 3.5 0.02 0.00 0.00 80 1014.7
20260906073225 82 38 1.7 2.6 0.02 0.00 0.00 80 1014.7
20260906072720 82 20 3.5 4.3 0.00 0.00 0.00 80 1014.7
20260906072216 82 33 2.6 5.2 0.00 0.00 0.00 79 1014.5
20260906071712 82 40 4.3 7.0 0.00 0.00 0.00 79 1014.7
20260906071212 83 56 3.5 5.2 0.00 0.00 0.00 78 1014.8
20260906070708 83 54 3.5 4.3 0.00 0.00 0.00 78 1014.7
20260906070204 83 23 1.7 5.2 0.00 0.00 0.00 77 1014.7
20260906065703 83 66 3.5 3.5 0.00 0.00 0.00 77 1014.9
20260906065159 83 24 2.6 4.3 0.00 0.00 0.00 76 1014.9
20260906064654 83 344 1.7 4.3 0.00 0.00 0.00 76 1014.8
20260906064149 84 341 0.9 1.7 0.00 0.00 0.00 76 1015.0
20260906063645 84 61 1.7 2.6 0.00 0.00 0.00 75 1014.8
20260906063140 84 39 2.6 5.2 0.00 0.00 0.00 75 1014.9
20260906062636 84 42 1.7 7.0 0.00 0.00 0.00 75 1015.0
20260906062135 84 19 0.9 5.2 0.00 0.00 0.00 75 1015.0
20260906061631 84 33 2.6 3.5 0.00 0.00 0.00 75 1014.8
20260906061131 83 17 1.7 3.5 0.00 0.00 0.00 76 1015.0
20260906060627 83 13 1.7 2.6 0.00 0.00 0.00 76 1015.0
20260906060125 83 33 1.7 1.7 0.00 0.00 0.00 76 1015.1
20260906055620 83 357 1.7 1.7 0.00 0.00 0.00 75 1014.8
20260906055115 84 355 1.7 1.7 0.00 0.00 0.00 76 1015.1
20260906054610 84 36 1.7 2.6 0.00 0.00 0.00 75 1014.9
20260906054105 84 8 1.7 2.6 0.00 0.00 0.00 76 1015.0
20260906053602 84 346 1.7 1.7 0.00 0.00 0.00 76 1014.9
20260906053057 84 22 2.6 3.5 0.00 0.00 0.00 74 1014.7
20260906052552 84 14 1.7 2.6 0.00 0.00 0.00 75 1014.9
20260906052049 84 357 0.9 2.6 0.00 0.00 0.00 75 1014.8
20260906051545 85 359 0.9 2.6 0.00 0.00 0.00 73 1014.7
20260906051040 85 56 0.9 1.7 0.00 0.00 0.00 71 1014.8
20260906050535 85 359 0.9 2.6 0.00 0.00 0.00 71 1014.7
20260906050030 85 37 1.7 2.6 0.00 0.02 0.02 69 1014.7
20260906045528 85 51 1.7 2.6 0.00 0.02 0.02 69 1014.7
20260906045024 85 15 1.7 2.6 0.00 0.02 0.02 70 1014.6
20260906044520 85 22 0.0 1.7 0.00 0.02 0.02 71 1014.7
20260906044015 85 0 1.7 1.7 0.00 0.02 0.02 72 1014.5
20260906043510 85 345 1.7 2.6 0.00 0.02 0.02 71 1014.6
20260906043007 85 28 2.6 3.5 0.00 0.02 0.02 71 1014.7
20260906042505 85 6 0.0 3.5 0.00 0.02 0.02 70 1014.5
20260906042005 85 337 0.9 3.5 0.00 0.02 0.02 69 1014.5
20260906041502 85 352 0.9 2.6 0.00 0.02 0.02 71 1014.4
20260906041001 85 26 2.6 2.6 0.00 0.02 0.02 71 1014.5
20260906040456 85 39 2.6 2.6 0.00 0.02 0.02 68 1014.5
20260906035951 85 21 0.9 3.5 0.00 0.02 0.02 70 1014.4
20260906035446 84 356 0.9 1.7 0.00 0.02 0.02 71 1014.4
20260906034937 84 2 0.9 2.6 0.00 0.02 0.02 72 1014.3
20260906034437 84 8 0.9 4.3 0.00 0.02 0.02 71 1014.2
20260906033932 83 318 1.7 1.7 0.00 0.02 0.02 73 1014.1
20260906033432 83 342 0.9 1.7 0.00 0.02 0.02 71 1014.2
20260906032928 84 11 0.0 1.7 0.00 0.02 0.02 72 1014.2
20260906032425 84 6 0.0 1.7 0.00 0.02 0.02 70 1014.3
20260906031924 84 10 0.0 1.7 0.00 0.02 0.02 69 1014.2
20260906031420 84 355 0.9 1.7 0.00 0.02 0.02 70 1014.0
20260906030915 85 345 0.0 0.9 0.00 0.02 0.02 69 1014.1
20260906030410 85 321 0.9 1.7 0.00 0.02 0.02 70 1014.0
20260906025904 85 30 0.0 1.7 0.00 0.02 0.02 68 1013.9
20260906025359 85 9 1.7 1.7 0.00 0.02 0.02 70 1013.9
20260906024857 84 31 0.0 2.6 0.00 0.02 0.02 72 1013.8
20260906024357 84 348 0.0 0.0 0.00 0.02 0.02 71 1013.6
20260906023852 84 12 0.9 0.9 0.00 0.02 0.02 74 1013.7
20260906023348 85 328 0.0 0.9 0.00 0.02 0.02 72 1013.7
20260906022848 85 315 0.0 0.9 0.00 0.02 0.02 73 1013.5
20260906022343 85 297 0.0 0.9 0.00 0.02 0.02 74 1013.4
20260906021839 86 312 0.0 0.9 0.00 0.02 0.02 72 1013.5
20260906021338 86 346 0.0 0.9 0.00 0.02 0.02 71 1013.2
20260906020833 87 15 0.0 0.9 0.00 0.02 0.02 67 1013.4
20260906020333 87 311 0.0 0.9 0.00 0.02 0.02 66 1013.1
20260906015828 88 335 0.0 1.7 0.00 0.02 0.02 64 1013.1
20260906015327 89 319 0.0 1.7 0.00 0.02 0.02 61 1013.2
20260906014826 89 317 0.9 1.7 0.00 0.02 0.02 57 1013.0
20260906014322 90 49 2.6 2.6 0.00 0.02 0.02 55 1012.9
20260906013818 90 37 1.7 3.5 0.00 0.02 0.02 55 1012.9
20260906013313 90 20 0.9 4.3 0.00 0.02 0.02 55 1012.8
20260906012808 90 0 0.0 2.6 0.00 0.02 0.02 55 1013.1
20260906012306 91 319 0.0 1.7 0.00 0.02 0.02 55 1012.8
20260906011758 91 321 0.9 1.7 0.00 0.02 0.02 54 1012.9
20260906011258 91 22 1.7 2.6 0.00 0.02 0.02 53 1012.9
20260906010754 92 344 0.9 2.6 0.00 0.02 0.02 52 1012.8
20260906010250 92 57 0.9 3.5 0.00 0.02 0.02 52 1012.7
20260906005745 93 69 1.7 3.5 0.00 0.02 0.02 51 1012.5
20260906005244 93 48 2.6 4.3 0.00 0.02 0.02 50 1012.4
20260906004743 93 17 1.7 5.2 0.00 0.02 0.02 50 1012.5
20260906004239 94 18 1.7 7.0 0.00 0.02 0.02 49 1012.4
20260906003739 94 44 2.6 6.1 0.00 0.02 0.02 48 1012.6
20260906003234 95 40 3.5 7.8 0.00 0.02 0.02 47 1012.4
20260906002734 95 66 3.5 7.0 0.00 0.02 0.02 47 1012.5
20260906002234 96 344 2.6 5.2 0.00 0.02 0.02 46 1012.3
20260906001730 96 20 2.6 3.5 0.00 0.02 0.02 46 1012.5
20260906001225 97 29 0.0 1.7 0.00 0.02 0.02 48 1012.4
20260906000720 97 0 0.9 2.6 0.00 0.02 0.02 47 1012.3
20260906000215 97 324 0.0 2.6 0.00 0.02 0.02 46 1012.4
20260905235715 97 325 1.7 2.6 0.00 0.02 0.02 47 1012.2
20260905235210 97 295 2.6 3.5 0.00 0.02 0.02 47 1012.3
20260905234705 98 328 1.7 3.5 0.00 0.02 0.02 46 1012.2
20260905234200 98 257 1.7 4.3 0.00 0.02 0.02 46 1012.4
20260905233656 98 260 4.3 4.3 0.00 0.02 0.02 46 1012.3
20260905233155 98 262 4.3 5.2 0.00 0.02 0.02 46 1012.6
20260905232650 97 258 3.5 4.3 0.00 0.02 0.02 46 1012.5
20260905232146 97 264 1.7 4.3 0.00 0.02 0.02 47 1012.5
20260905231641 98 306 1.7 3.5 0.00 0.02 0.02 47 1012.5
20260905231137 98 325 1.7 3.5 0.00 0.02 0.02 46 1012.4
20260905230633 99 291 5.2 5.2 0.00 0.02 0.02 45 1012.6
20260905230131 99 274 3.5 7.0 0.00 0.02 0.02 43 1012.6
20260905225630 99 311 2.6 4.3 0.00 0.02 0.02 43 1012.5
20260905225125 100 295 3.5 6.1 0.00 0.02 0.02 43 1012.5
20260905224625 99 299 2.6 2.6 0.00 0.02 0.02 44 1012.6
20260905224125 99 303 5.2 7.8 0.00 0.02 0.02 42 1012.3
20260905223622 99 305 2.6 6.1 0.00 0.02 0.02 43 1012.4
20260905223118 99 287 3.5 3.5 0.00 0.02 0.02 43 1012.5
20260905222618 99 314 3.5 4.3 0.00 0.02 0.02 41 1012.3
20260905222113 99 288 4.3 4.3 0.00 0.02 0.02 40 1012.4
20260905221609 98 250 2.6 4.3 0.00 0.02 0.02 41 1012.6
20260905221106 99 266 5.2 6.1 0.00 0.02 0.02 40 1012.6
20260905220601 99 304 5.2 10.4 0.00 0.02 0.02 39 1012.6
20260905220057 100 337 5.2 7.8 0.00 0.02 0.02 39 1012.6
20260905215556 100 265 4.3 7.8 0.00 0.02 0.02 38 1012.7
20260905215052 100 322 4.3 8.7 0.00 0.02 0.02 36 1012.5
20260905214549 100 340 1.7 3.5 0.00 0.02 0.02 39 1012.5
20260905214049 99 266 3.5 4.3 0.00 0.02 0.02 38 1012.5
20260905213544 99 261 4.3 5.2 0.00 0.02 0.02 39 1012.6
20260905213040 99 267 3.5 4.3 0.00 0.02 0.02 41 1012.5
20260905212539 98 262 2.6 7.0 0.00 0.02 0.02 43 1012.5
20260905212039 97 242 2.6 6.1 0.00 0.02 0.02 45 1012.6
20260905211534 98 266 7.0 10.4 0.00 0.02 0.02 44 1012.6
20260905211030 97 311 3.5 5.2 0.00 0.02 0.02 44 1012.6
20260905210526 97 263 6.1 9.6 0.00 0.02 0.02 44 1012.7
20260905210025 97 288 3.5 7.8 0.00 0.02 0.02 44 1012.7
20260905205520 98 281 12.2 17.4 0.00 0.02 0.02 43 1012.7
20260905205019 100 311 5.2 5.2 0.00 0.02 0.02 39 1012.7
20260905204514 100 281 1.7 5.2 0.00 0.02 0.02 38 1012.8
20260905204009 100 276 4.3 5.2 0.00 0.02 0.02 37 1012.8
20260905203504 101 315 8.7 11.3 0.00 0.02 0.02 37 1012.8
20260905202959 102 299 7.8 12.2 0.00 0.02 0.02 36 1012.8
20260905202454 102 327 4.3 11.3 0.00 0.02 0.02 36 1012.9
20260905201949 102 265 6.1 9.6 0.00 0.02 0.02 35 1012.7
20260905201444 102 260 3.5 5.2 0.00 0.02 0.02 34 1012.8
20260905200944 102 267 3.5 5.2 0.00 0.02 0.02 35 1012.9
20260905200440 101 266 3.5 9.6 0.00 0.02 0.02 35 1013.1
20260905195938 101 275 7.0 11.3 0.00 0.02 0.02 35 1013.1
20260905195433 101 292 1.7 6.1 0.00 0.02 0.02 37 1013.1
20260905194929 101 292 4.3 4.3 0.00 0.02 0.02 36 1013.1
20260905194429 100 324 5.2 6.1 0.00 0.02 0.02 38 1013.1
20260905193928 101 263 5.2 8.7 0.00 0.02 0.02 37 1013.4
20260905193423 101 269 5.2 8.7 0.00 0.02 0.02 39 1013.4
20260905192918 101 249 4.3 9.6 0.00 0.02 0.02 38 1013.4
20260905192414 101 261 6.1 8.7 0.00 0.02 0.02 38 1013.5
20260905191914 101 247 2.6 7.8 0.00 0.02 0.02 38 1013.5
20260905191413 100 315 6.1 10.4 0.00 0.02 0.02 39 1013.7
20260905190908 101 344 2.6 11.3 0.00 0.02 0.02 39 1013.8
20260905190406 101 347 6.1 11.3 0.00 0.02 0.02 38 1013.7
20260905185905 100 244 7.8 7.8 0.00 0.02 0.02 38 1013.6
20260905185400 100 293 5.2 11.3 0.00 0.02 0.02 38 1013.9
20260905184859 100 287 7.0 10.4 0.00 0.02 0.02 39 1013.9
20260905184358 100 314 3.5 13.0 0.00 0.02 0.02 39 1013.8
20260905183856 100 268 4.3 9.6 0.00 0.02 0.02 39 1013.8
20260905183352 100 265 4.3 8.7 0.00 0.02 0.02 39 1014.0
20260905182847 100 275 7.0 11.3 0.00 0.02 0.02 41 1014.1
20260905182347 100 0 2.6 9.6 0.00 0.02 0.02 41 1014.0
20260905181842 100 285 3.5 7.0 0.00 0.02 0.02 41 1014.1
20260905181342 100 309 7.8 8.7 0.00 0.02 0.02 42 1014.3
20260905180841 99 295 4.3 6.1 0.00 0.02 0.02 44 1014.3
20260905180336 99 260 4.3 7.8 0.00 0.02 0.02 43 1014.4
20260905175832 99 299 4.3 9.6 0.00 0.02 0.02 43 1014.4
20260905175331 99 290 3.5 8.7 0.00 0.02 0.02 43 1014.4
20260905174827 100 291 2.6 7.8 0.00 0.02 0.02 42 1014.3
20260905174323 98 244 2.6 5.2 0.00 0.02 0.02 44 1014.4
20260905173818 98 349 5.2 7.8 0.00 0.02 0.02 45 1014.5
20260905173314 98 273 5.2 7.8 0.00 0.02 0.02 45 1014.7
20260905172814 97 293 4.3 6.1 0.00 0.02 0.02 46 1014.6
20260905172312 97 309 5.2 12.2 0.00 0.02 0.02 46 1014.6
20260905171808 97 297 8.7 8.7 0.00 0.02 0.02 45 1014.9
20260905171305 96 249 3.5 7.0 0.00 0.02 0.02 48 1014.7
20260905170801 96 254 3.5 8.7 0.00 0.02 0.02 49 1014.8
20260905170256 96 299 0.9 7.0 0.00 0.02 0.02 48 1014.8
20260905165755 96 298 5.2 6.1 0.00 0.02 0.02 48 1015.0
20260905165251 96 285 4.3 6.1 0.00 0.02 0.02 48 1015.1
20260905164746 95 299 2.6 8.7 0.00 0.02 0.02 49 1015.2
20260905164246 95 303 6.1 9.6 0.00 0.02 0.02 49 1015.4
20260905163741 95 300 6.1 8.7 0.00 0.02 0.02 49 1015.3
20260905163238 95 318 5.2 7.0 0.00 0.02 0.02 50 1015.3
20260905162734 95 293 6.1 7.8 0.00 0.02 0.02 51 1015.6
20260905162233 95 271 1.7 6.1 0.00 0.02 0.02 51 1015.4
20260905161728 94 253 5.2 7.0 0.00 0.02 0.02 51 1015.4
20260905161226 94 279 4.3 7.8 0.00 0.02 0.02 52 1015.4
20260905160725 94 333 5.2 6.1 0.00 0.02 0.02 53 1015.4
20260905160220 93 335 7.8 8.7 0.00 0.02 0.02 53 1015.5
20260905155720 93 328 3.5 6.1 0.00 0.02 0.02 53 1015.3
20260905155219 93 338 3.5 5.2 0.00 0.02 0.02 54 1015.4
20260905154713 93 337 4.3 5.2 0.00 0.02 0.02 54 1015.6
20260905154209 92 285 3.5 7.8 0.00 0.02 0.02 54 1015.5
20260905153704 92 308 5.2 8.7 0.00 0.02 0.02 54 1015.5
20260905153200 91 278 6.1 9.6 0.00 0.02 0.02 55 1015.6
20260905152654 92 327 8.7 10.4 0.00 0.02 0.02 55 1015.4
20260905152149 91 336 6.1 8.7 0.00 0.02 0.02 55 1015.7
20260905151644 91 272 5.2 7.0 0.00 0.02 0.02 55 1015.6
20260905151139 91 315 7.0 7.8 0.00 0.02 0.02 56 1015.5
20260905150635 91 334 5.2 7.0 0.00 0.02 0.02 57 1015.6
20260905150133 91 329 8.7 9.6 0.00 0.02 0.02 55 1015.4
20260905145631 91 308 3.5 4.3 0.00 0.02 0.02 57 1015.4
20260905145131 91 269 1.7 3.5 0.00 0.02 0.02 56 1015.6
20260905144626 90 278 4.3 5.2 0.00 0.02 0.02 57 1015.6
20260905144125 90 288 3.5 6.1 0.00 0.02 0.02 58 1015.3
20260905143620 89 239 5.2 9.6 0.00 0.02 0.02 57 1015.6
20260905143114 89 263 5.2 9.6 0.00 0.02 0.02 57 1015.4
20260905142613 89 225 4.3 7.0 0.00 0.02 0.02 58 1015.6
20260905142113 89 253 6.1 10.4 0.00 0.02 0.02 58 1015.4
20260905141613 89 296 2.6 4.3 0.00 0.02 0.02 61 1015.4
20260905141110 88 317 3.5 4.3 0.00 0.02 0.02 62 1015.5
20260905140610 88 269 4.3 6.1 0.00 0.02 0.02 62 1015.5